QPF
0.13 0.17 0.20 0.14 0.11 0.13 0.13 0.10 0.09 0.09 0.08 0.06 0.06 0.08 0.10 0.09 0.07 0.08 0.11 0.09 0.07 0.06 0.07 0.07 0.07 0.08 0.08 0.07 0.06 0.06 0.07 0.09 0.10 0.12 0.14 0.14 0.09 0.06 0.05 0.03 0.03 0.03 0.04
0.08 0.12 0.15 0.15 0.13 0.13 0.12 0.10 0.09 0.06 0.04 0.04 0.05 0.06 0.07 0.07 0.06 0.06 0.08 0.07 0.06 0.08 0.10 0.11 0.11 0.11 0.10 0.09 0.10 0.11 0.13 0.14 0.14 0.12 0.11 0.09 0.06 0.04 0.04 0.03 0.03 0.05 0.06
0.04 0.08 0.13 0.16 0.16 0.12 0.11 0.10 0.08 0.05 0.04 0.03 0.04 0.06 0.07 0.05 0.03 0.04 0.05 0.06 0.05 0.07 0.09 0.11 0.15 0.16 0.15 0.16 0.16 0.15 0.14 0.14 0.13 0.12 0.09 0.07 0.06 0.04 0.03 0.03 0.05 0.06 0.06
0.04 0.05 0.09 0.14 0.16 0.15 0.15 0.12 0.08 0.07 0.05 0.05 0.06 0.07 0.09 0.06 0.05 0.06 0.06 0.07 0.07 0.07 0.11 0.13 0.17 0.19 0.17 0.17 0.16 0.16 0.14 0.13 0.12 0.11 0.09 0.07 0.06 0.06 0.05 0.05 0.06 0.05 0.06
0.03 0.03 0.05 0.09 0.13 0.13 0.13 0.13 0.11 0.09 0.07 0.06 0.07 0.10 0.10 0.07 0.07 0.07 0.06 0.07 0.08 0.08 0.13 0.15 0.17 0.17 0.17 0.17 0.16 0.14 0.13 0.13 0.12 0.09 0.07 0.07 0.07 0.07 0.06 0.05 0.04 0.04 0.06
0.03 0.04 0.05 0.05 0.06 0.07 0.08 0.10 0.10 0.09 0.07 0.07 0.08 0.10 0.09 0.08 0.08 0.09 0.09 0.07 0.06 0.06 0.07 0.08 0.10 0.11 0.11 0.11 0.12 0.12 0.11 0.11 0.10 0.07 0.07 0.06 0.05 0.04 0.04 0.04 0.04 0.04 0.04
0.04 0.04 0.05 0.05 0.05 0.04 0.04 0.05 0.08 0.09 0.08 0.07 0.08 0.09 0.08 0.06 0.07 0.09 0.08 0.07 0.05 0.05 0.05 0.07 0.11 0.09 0.08 0.08 0.09 0.08 0.08 0.08 0.08 0.08 0.06 0.06 0.06 0.05 0.05 0.05 0.05 0.05 0.05
0.05 0.05 0.05 0.06 0.06 0.05 0.05 0.05 0.07 0.08 0.09 0.09 0.08 0.06 0.05 0.06 0.06 0.07 0.07 0.07 0.08 0.08 0.06 0.08 0.10 0.11 0.09 0.10 0.08 0.07 0.06 0.06 0.07 0.07 0.07 0.06 0.05 0.06 0.05 0.05 0.06 0.05 0.05
0.06 0.05 0.04 0.06 0.07 0.07 0.05 0.05 0.06 0.05 0.06 0.06 0.07 0.05 0.03 0.03 0.05 0.06 0.06 0.06 0.06 0.07 0.06 0.06 0.08 0.13 0.14 0.11 0.10 0.10 0.07 0.06 0.06 0.06 0.06 0.05 0.05 0.06 0.06 0.05 0.06 0.05 0.04
0.05 0.04 0.04 0.04 0.07 0.06 0.04 0.04 0.03 0.03 0.03 0.04 0.05 0.06 0.06 0.05 0.05 0.06 0.05 0.04 0.04 0.05 0.05 0.05 0.06 0.07 0.09 0.09 0.11 0.14 0.11 0.09 0.06 0.05 0.05 0.04 0.04 0.05 0.06 0.06 0.06 0.06 0.04
0.04 0.04 0.06 0.06 0.05 0.04 0.03 0.03 0.03 0.02 0.03 0.03 0.04 0.05 0.07 0.06 0.05 0.05 0.04 0.04 0.04 0.05 0.07 0.06 0.05 0.05 0.06 0.06 0.07 0.09 0.10 0.08 0.07 0.05 0.03 0.03 0.03 0.03 0.04 0.05 0.05 0.05 0.04
0.07 0.09 0.08 0.07 0.05 0.03 0.03 0.03 0.03 0.02 0.03 0.03 0.03 0.04 0.04 0.05 0.06 0.07 0.06 0.05 0.04 0.04 0.06 0.09 0.11 0.10 0.11 0.10 0.10 0.09 0.09 0.08 0.05 0.04 0.03 0.03 0.02 0.02 0.02 0.02 0.02 0.02 0.02
0.09 0.05 0.04 0.05 0.05 0.04 0.05 0.05 0.04 0.03 0.03 0.03 0.04 0.04 0.05 0.06 0.07 0.08 0.09 0.06 0.04 0.04 0.05 0.07 0.10 0.11 0.11 0.13 0.14 0.12 0.10 0.07 0.05 0.04 0.03 0.04 0.04 0.03 0.02 0.02 0.02 0.02 0.02
0.05 0.04 0.05 0.04 0.04 0.04 0.05 0.05 0.04 0.03 0.03 0.03 0.03 0.04 0.05 0.07 0.08 0.06 0.06 0.05 0.04 0.04 0.05 0.07 0.09 0.10 0.13 0.15 0.14 0.09 0.07 0.07 0.05 0.03 0.03 0.04 0.05 0.04 0.03 0.02 0.02 0.02 0.02
0.03 0.03 0.03 0.03 0.03 0.03 0.03 0.03 0.02 0.02 0.03 0.03 0.03 0.04 0.05 0.05 0.05 0.04 0.05 0.05 0.04 0.03 0.04 0.04 0.06 0.08 0.11 0.15 0.13 0.08 0.07 0.05 0.03 0.03 0.03 0.03 0.03 0.03 0.03 0.03 0.03 0.02 0.02
0.02 0.03 0.03 0.04 0.03 0.02 0.02 0.02 0.01 0.01 0.01 0.01 0.02 0.02 0.03 0.03 0.04 0.05 0.04 0.04 0.03 0.03 0.02 0.02 0.04 0.06 0.07 0.10 0.10 0.07 0.07 0.07 0.05 0.03 0.03 0.02 0.02 0.02 0.02 0.02 0.01 0.02 0.02
0.01 0.03 0.03 0.03 0.03 0.02 0.01 0.01 0.01 0.01 0.01 0.01 0.02 0.02 0.02 0.02 0.03 0.03 0.03 0.03 0.03 0.04 0.03 0.02 0.03 0.05 0.07 0.08 0.09 0.07 0.07 0.06 0.04 0.04 0.03 0.03 0.03 0.03 0.02 0.01 0.01 0.02 0.03
0.01 0.01 0.02 0.02 0.02 0.02 0.02 0.01 0.01 0.01 0.01 0.02 0.02 0.02 0.02 0.02 0.04 0.03 0.02 0.02 0.02 0.02 0.03 0.03 0.04 0.04 0.04 0.04 0.05 0.07 0.06 0.05 0.04 0.03 0.04 0.03 0.03 0.03 0.02 0.02 0.02 0.03 0.03
0.01 0.01 0.01 0.01 0.01 0.01 0.01 0.02 0.02 0.02 0.02 0.02 0.02 0.03 0.02 0.02 0.03 0.02 0.02 0.02 0.02 0.02 0.03 0.04 0.03 0.02 0.02 0.03 0.04 0.04 0.04 0.04 0.03 0.02 0.02 0.02 0.03 0.03 0.03 0.03 0.03 0.03 0.02
0.01 0.01 0.01 0.01 0.01 0.01 0.01 0.01 0.01 0.01 0.01 0.01 0.01 0.02 0.01 0.01 0.02 0.02 0.01 0.01 0.02 0.02 0.02 0.03 0.04 0.04 0.04 0.03 0.03 0.02 0.02 0.02 0.02 0.01 0.01 0.01 0.02 0.02 0.02 0.02 0.02 0.02 0.02
0.01 0.01 0.01 0.01 0.01 0.01 0.01 0.01 0.00 0.01 0.01 0.01 0.01 0.01 0.01 0.02 0.02 0.01 0.01 0.01 0.01 0.01 0.02 0.03 0.04 0.03 0.03 0.03 0.02 0.02 0.01 0.02 0.01 0.01 0.01 0.01 0.01 0.01 0.02 0.02 0.02 0.02 0.02
0.01 0.01 0.01 0.01 0.01 0.01 0.01 0.01 0.01 0.00 0.00 0.01 0.01 0.00 0.00 0.01 0.01 0.02 0.01 0.01 0.01 0.01 0.01 0.02 0.01 0.01 0.01 0.02 0.02 0.02 0.02 0.01 0.01 0.01 0.01 0.02 0.02 0.02 0.02 0.02 0.03 0.03 0.03
0.01 0.01 0.01 0.00 0.00 0.01 0.00 0.00 0.01 0.01 0.00 0.00 0.00 0.00 0.00 0.00 0.01 0.01 0.01 0.01 0.01 0.01 0.01 0.01 0.01 0.01 0.01 0.01 0.03 0.03 0.02 0.02 0.01 0.01 0.01 0.01 0.01 0.01 0.01 0.02 0.03 0.03 0.02
0.01 0.01 0.01 0.00 0.00 0.00 0.00 0.00 0.01 0.00 0.00 0.00 0.00 0.01 0.00 0.00 0.01 0.01 0.00 0.00 0.00 0.01 0.01 0.01 0.01 0.01 0.01 0.01 0.02 0.03 0.02 0.01 0.01 0.01 0.01 0.01 0.01 0.01 0.01 0.02 0.03 0.04 0.04
0.02 0.01 0.01 0.01 0.01 0.01 0.01 0.01 0.01 0.01 0.01 0.01 0.02 0.01 0.01 0.00 0.02 0.01 0.00 0.00 0.01 0.01 0.02 0.01 0.01 0.01 0.01 0.01 0.01 0.01 0.01 0.01 0.00 0.00 0.01 0.01 0.00 0.01 0.01 0.01 0.01 0.02 0.02
0.03 0.02 0.01 0.02 0.02 0.02 0.03 0.03 0.03 0.02 0.01 0.01 0.02 0.02 0.01 0.01 0.02 0.02 0.01 0.01 0.01 0.01 0.01 0.01 0.01 0.01 0.00 0.00 0.01 0.01 0.01 0.01 0.00 0.00 0.00 0.00 0.00 0.00 0.00 0.00 0.01 0.01 0.01
MSLP
1015.02 1015.48 1015.83 1016.09 1016.29 1016.45 1016.59 1016.76 1016.94 1017.17 1017.41 1017.66 1017.90 1018.12 1018.31 1018.47 1018.61 1018.75 1018.89 1019.06 1019.25 1019.45 1019.67 1019.89 1020.08 1020.24 1020.36 1020.43 1020.47 1020.47 1020.46 1020.46 1020.46 1020.49 1020.53 1020.59 1020.64 1020.67 1020.66 1020.62 1020.54 1020.43 1020.31
1015.48 1015.88 1016.19 1016.43 1016.60 1016.74 1016.87 1017.03 1017.21 1017.43 1017.68 1017.94 1018.19 1018.41 1018.59 1018.73 1018.83 1018.92 1019.01 1019.13 1019.27 1019.44 1019.64 1019.85 1020.06 1020.23 1020.36 1020.44 1020.47 1020.47 1020.44 1020.41 1020.39 1020.40 1020.43 1020.47 1020.52 1020.55 1020.54 1020.50 1020.42 1020.30 1020.18
1015.77 1016.13 1016.42 1016.65 1016.83 1016.98 1017.13 1017.30 1017.49 1017.73 1017.99 1018.26 1018.51 1018.73 1018.90 1019.01 1019.08 1019.12 1019.15 1019.19 1019.28 1019.40 1019.56 1019.75 1019.95 1020.13 1020.26 1020.34 1020.37 1020.35 1020.30 1020.24 1020.19 1020.17 1020.17 1020.20 1020.24 1020.27 1020.27 1020.24 1020.18 1020.08 1019.97
1015.93 1016.25 1016.53 1016.77 1016.97 1017.16 1017.34 1017.54 1017.77 1018.02 1018.29 1018.57 1018.83 1019.04 1019.20 1019.29 1019.32 1019.31 1019.28 1019.26 1019.27 1019.33 1019.43 1019.58 1019.75 1019.90 1020.03 1020.11 1020.13 1020.09 1020.02 1019.94 1019.86 1019.81 1019.78 1019.79 1019.82 1019.85 1019.87 1019.86 1019.82 1019.75 1019.67
1015.98 1016.26 1016.54 1016.80 1017.05 1017.28 1017.51 1017.75 1018.00 1018.27 1018.55 1018.83 1019.09 1019.30 1019.45 1019.53 1019.54 1019.48 1019.39 1019.30 1019.23 1019.21 1019.25 1019.33 1019.45 1019.57 1019.67 1019.73 1019.74 1019.70 1019.62 1019.51 1019.41 1019.33 1019.29 1019.28 1019.29 1019.32 1019.35 1019.36 1019.35 1019.31 1019.25
1015.99 1016.23 1016.50 1016.79 1017.07 1017.35 1017.63 1017.90 1018.17 1018.45 1018.74 1019.02 1019.28 1019.49 1019.64 1019.71 1019.70 1019.61 1019.48 1019.32 1019.18 1019.07 1019.01 1019.02 1019.06 1019.13 1019.20 1019.24 1019.24 1019.19 1019.10 1019.00 1018.88 1018.79 1018.73 1018.70 1018.70 1018.73 1018.76 1018.79 1018.79 1018.78 1018.74
1016.00 1016.20 1016.46 1016.76 1017.08 1017.40 1017.71 1018.00 1018.29 1018.57 1018.85 1019.12 1019.37 1019.59 1019.74 1019.81 1019.80 1019.70 1019.53 1019.33 1019.11 1018.91 1018.76 1018.67 1018.63 1018.62 1018.64 1018.65 1018.64 1018.59 1018.51 1018.41 1018.31 1018.22 1018.15 1018.11 1018.11 1018.13 1018.16 1018.18 1018.19 1018.18 1018.15
1016.04 1016.20 1016.45 1016.76 1017.10 1017.45 1017.77 1018.08 1018.36 1018.63 1018.89 1019.14 1019.39 1019.60 1019.76 1019.85 1019.85 1019.75 1019.57 1019.32 1019.04 1018.77 1018.52 1018.32 1018.18 1018.09 1018.04 1018.01 1017.98 1017.94 1017.88 1017.80 1017.72 1017.65 1017.59 1017.56 1017.55 1017.56 1017.57 1017.58 1017.58 1017.57 1017.52
1016.11 1016.25 1016.48 1016.79 1017.14 1017.49 1017.83 1018.12 1018.39 1018.64 1018.87 1019.11 1019.34 1019.55 1019.73 1019.84 1019.86 1019.78 1019.60 1019.33 1019.00 1018.65 1018.30 1018.00 1017.75 1017.57 1017.45 1017.36 1017.31 1017.27 1017.22 1017.18 1017.14 1017.10 1017.07 1017.05 1017.04 1017.04 1017.04 1017.03 1017.01 1016.97 1016.90
1016.19 1016.31 1016.54 1016.85 1017.19 1017.54 1017.86 1018.14 1018.38 1018.60 1018.80 1019.01 1019.23 1019.44 1019.63 1019.77 1019.82 1019.77 1019.60 1019.33 1018.97 1018.56 1018.14 1017.74 1017.39 1017.11 1016.90 1016.76 1016.66 1016.61 1016.58 1016.57 1016.56 1016.56 1016.57 1016.57 1016.58 1016.58 1016.57 1016.55 1016.51 1016.44 1016.35
1016.24 1016.36 1016.58 1016.88 1017.21 1017.55 1017.85 1018.11 1018.32 1018.50 1018.67 1018.85 1019.05 1019.26 1019.47 1019.63 1019.72 1019.71 1019.58 1019.32 1018.96 1018.52 1018.03 1017.55 1017.11 1016.73 1016.43 1016.21 1016.07 1015.99 1015.96 1015.96 1015.99 1016.03 1016.07 1016.11 1016.15 1016.17 1016.17 1016.14 1016.08 1016.00 1015.88
1016.23 1016.34 1016.56 1016.85 1017.17 1017.49 1017.77 1018.01 1018.19 1018.33 1018.47 1018.62 1018.80 1019.01 1019.22 1019.41 1019.55 1019.58 1019.49 1019.27 1018.93 1018.48 1017.97 1017.44 1016.92 1016.45 1016.07 1015.77 1015.56 1015.44 1015.38 1015.38 1015.43 1015.50 1015.58 1015.66 1015.73 1015.78 1015.80 1015.79 1015.74 1015.65 1015.53
1016.11 1016.23 1016.44 1016.72 1017.03 1017.33 1017.60 1017.81 1017.96 1018.07 1018.18 1018.30 1018.46 1018.66 1018.88 1019.09 1019.26 1019.35 1019.32 1019.15 1018.85 1018.44 1017.93 1017.37 1016.81 1016.28 1015.82 1015.45 1015.16 1014.98 1014.88 1014.86 1014.90 1014.98 1015.09 1015.21 1015.31 1015.41 1015.46 1015.48 1015.46 1015.40 1015.29
1015.88 1016.01 1016.23 1016.50 1016.79 1017.08 1017.32 1017.51 1017.64 1017.73 1017.81 1017.90 1018.04 1018.22 1018.44 1018.67 1018.87 1019.01 1019.04 1018.95 1018.71 1018.35 1017.89 1017.35 1016.78 1016.22 1015.70 1015.26 1014.90 1014.65 1014.49 1014.42 1014.43 1014.51 1014.62 1014.76 1014.91 1015.04 1015.14 1015.21 1015.23 1015.21 1015.13
1015.55 1015.70 1015.91 1016.18 1016.47 1016.74 1016.97 1017.14 1017.26 1017.33 1017.38 1017.45 1017.56 1017.72 1017.92 1018.15 1018.38 1018.56 1018.65 1018.63 1018.49 1018.21 1017.81 1017.33 1016.79 1016.23 1015.70 1015.21 1014.80 1014.47 1014.25 1014.11 1014.08 1014.12 1014.22 1014.36 1014.52 1014.69 1014.84 1014.95 1015.03 1015.05 1015.02
1015.16 1015.32 1015.54 1015.81 1016.09 1016.35 1016.58 1016.74 1016.85 1016.90 1016.93 1016.98 1017.06 1017.18 1017.36 1017.58 1017.81 1018.02 1018.17 1018.23 1018.17 1017.99 1017.70 1017.30 1016.83 1016.32 1015.80 1015.29 1014.85 1014.47 1014.17 1013.97 1013.87 1013.86 1013.92 1014.04 1014.20 1014.37 1014.55 1014.70 1014.82 1014.89 1014.91
1014.72 1014.90 1015.13 1015.41 1015.69 1015.96 1016.19 1016.35 1016.45 1016.50 1016.52 1016.53 1016.58 1016.67 1016.82 1017.01 1017.22 1017.44 1017.62 1017.74 1017.77 1017.70 1017.51 1017.23 1016.86 1016.42 1015.96 1015.48 1015.03 1014.62 1014.28 1014.02 1013.84 1013.76 1013.76 1013.82 1013.95 1014.11 1014.28 1014.45 1014.59 1014.70 1014.76
1014.25 1014.46 1014.71 1015.00 1015.30 1015.57 1015.81 1015.98 1016.09 1016.13 1016.14 1016.14 1016.16 1016.21 1016.31 1016.46 1016.65 1016.85 1017.05 1017.20 1017.30 1017.32 1017.24 1017.08 1016.83 1016.50 1016.12 1015.71 1015.29 1014.88 1014.52 1014.21 1013.97 1013.81 1013.73 1013.73 1013.79 1013.89 1014.03 1014.18 1014.33 1014.45 1014.53
1013.75 1013.99 1014.27 1014.58 1014.89 1015.18 1015.43 1015.61 1015.73 1015.78 1015.79 1015.78 1015.77 1015.79 1015.85 1015.95 1016.09 1016.27 1016.45 1016.62 1016.76 1016.85 1016.87 1016.82 1016.69 1016.49 1016.22 1015.90 1015.54 1015.18 1014.82 1014.49 1014.20 1013.97 1013.82 1013.73 1013.71 1013.74 1013.81 1013.92 1014.03 1014.14 1014.23
1013.21 1013.47 1013.78 1014.11 1014.44 1014.74 1015.00 1015.20 1015.33 1015.40 1015.41 1015.40 1015.38 1015.38 1015.40 1015.46 1015.56 1015.69 1015.84 1016.01 1016.16 1016.29 1016.39 1016.43 1016.41 1016.33 1016.18 1015.97 1015.71 1015.41 1015.09 1014.77 1014.46 1014.19 1013.96 1013.79 1013.68 1013.63 1013.62 1013.65 1013.71 1013.78 1013.86
1012.60 1012.88 1013.20 1013.54 1013.87 1014.18 1014.44 1014.65 1014.80 1014.88 1014.92 1014.93 1014.92 1014.91 1014.92 1014.95 1015.01 1015.09 1015.21 1015.35 1015.49 1015.64 1015.78 1015.89 1015.97 1016.00 1015.96 1015.87 1015.71 1015.50 1015.25 1014.96 1014.66 1014.37 1014.10 1013.87 1013.68 1013.54 1013.45 1013.41 1013.40 1013.42 1013.46
1011.92 1012.21 1012.52 1012.84 1013.16 1013.45 1013.70 1013.90 1014.06 1014.17 1014.23 1014.27 1014.29 1014.31 1014.33 1014.35 1014.39 1014.45 1014.53 1014.63 1014.76 1014.90 1015.06 1015.21 1015.35 1015.46 1015.53 1015.55 1015.50 1015.39 1015.22 1014.99 1014.73 1014.46 1014.18 1013.91 1013.67 1013.46 1013.30 1013.19 1013.12 1013.08 1013.08
1011.20 1011.45 1011.73 1012.01 1012.28 1012.52 1012.74 1012.92 1013.08 1013.20 1013.30 1013.39 1013.46 1013.53 1013.58 1013.63 1013.68 1013.73 1013.79 1013.86 1013.96 1014.09 1014.24 1014.41 1014.58 1014.75 1014.90 1015.00 1015.05 1015.04 1014.96 1014.82 1014.62 1014.39 1014.13 1013.87 1013.61 1013.38 1013.18 1013.02 1012.90 1012.81 1012.77
1010.47 1010.66 1010.87 1011.07 1011.26 1011.43 1011.58 1011.73 1011.86 1012.00 1012.13 1012.28 1012.41 1012.55 1012.66 1012.76 1012.84 1012.91 1012.97 1013.03 1013.11 1013.21 1013.35 1013.52 1013.71 1013.91 1014.10 1014.27 1014.40 1014.47 1014.48 1014.43 1014.31 1014.14 1013.94 1013.71 1013.49 1013.26 1013.06 1012.89 1012.75 1012.64 1012.56
1009.79 1009.89 1010.00 1010.09 1010.17 1010.25 1010.32 1010.40 1010.50 1010.64 1010.80 1010.99 1011.20 1011.41 1011.60 1011.77 1011.90 1012.00 1012.08 1012.15 1012.22 1012.31 1012.43 1012.59 1012.77 1012.99 1013.20 1013.41 1013.59 1013.73 1013.81 1013.83 1013.80 1013.71 1013.59 1013.44 1013.27 1013.10 1012.94 1012.79 1012.66 1012.55 1012.46
1009.21 1009.21 1009.20 1009.17 1009.13 1009.09 1009.06 1009.07 1009.12 1009.24 1009.42 1009.65 1009.91 1010.18 1010.45 1010.69 1010.88 1011.03 1011.14 1011.23 1011.31 1011.39 1011.50 1011.65 1011.83 1012.04 1012.26 1012.49 1012.69 1012.87 1013.01 1013.09 1013.13 1013.13 1013.09 1013.03 1012.95 1012.86 1012.77 1012.69 1012.60 1012.52 1012.45
Thickness
5775 5774 5773 5772 5770 5768 5766 5763 5762 5760 5759 5757 5756 5755 5753 5751 5749 5748 5747 5746 5745 5745 5745 5745 5744 5743 5741 5740 5738 5736 5734 5733 5731 5729 5728 5726 5724 5723 5722 5722 5721 5721 5721
5775 5774 5773 5772 5770 5768 5766 5764 5762 5760 5758 5756 5754 5753 5751 5750 5748 5747 5746 5745 5744 5743 5743 5743 5743 5742 5740 5739 5737 5735 5733 5732 5730 5728 5727 5725 5724 5723 5722 5721 5720 5720 5720
5776 5775 5774 5772 5770 5768 5765 5763 5761 5759 5757 5754 5752 5751 5749 5748 5747 5745 5744 5743 5742 5742 5741 5741 5741 5740 5739 5737 5736 5733 5732 5730 5728 5727 5725 5724 5723 5722 5721 5720 5719 5719 5719
5776 5775 5773 5770 5769 5767 5765 5762 5759 5756 5753 5751 5749 5749 5748 5746 5745 5743 5742 5740 5739 5739 5739 5739 5739 5739 5737 5736 5734 5732 5730 5728 5727 5725 5724 5723 5722 5720 5719 5719 5718 5717 5717
5775 5774 5772 5769 5768 5766 5763 5761 5758 5755 5751 5749 5748 5747 5746 5744 5743 5742 5740 5738 5737 5737 5736 5736 5736 5736 5735 5733 5732 5730 5728 5727 5725 5724 5722 5721 5720 5719 5718 5716 5716 5715 5714
5774 5772 5770 5768 5766 5764 5761 5759 5756 5754 5752 5749 5747 5744 5743 5742 5741 5740 5739 5737 5736 5735 5734 5733 5733 5733 5732 5730 5729 5728 5727 5725 5724 5722 5721 5719 5718 5717 5716 5715 5714 5713 5712
5772 5771 5768 5766 5764 5762 5760 5758 5755 5752 5749 5748 5743 5739 5739 5740 5739 5739 5737 5735 5734 5733 5732 5731 5730 5729 5728 5727 5726 5725 5724 5723 5722 5720 5719 5717 5716 5715 5714 5713 5711 5710 5709
5771 5769 5767 5765 5763 5761 5758 5756 5754 5750 5747 5747 5741 5734 5729 5730 5733 5736 5734 5732 5731 5730 5729 5729 5727 5726 5725 5724 5724 5723 5722 5721 5719 5718 5716 5715 5714 5713 5711 5710 5709 5707 5706
5769 5768 5766 5765 5762 5761 5758 5756 5754 5751 5746 5745 5744 5737 5728 5722 5724 5728 5729 5729 5728 5727 5726 5725 5724 5723 5722 5721 5720 5719 5718 5717 5716 5715 5713 5712 5710 5709 5708 5706 5705 5703 5702
5768 5767 5766 5764 5761 5759 5758 5756 5755 5752 5748 5743 5743 5742 5738 5733 5724 5719 5722 5725 5725 5724 5722 5722 5720 5719 5718 5717 5716 5716 5714 5713 5712 5711 5709 5708 5707 5705 5704 5702 5701 5699 5698
5768 5767 5765 5763 5760 5759 5757 5756 5754 5752 5749 5745 5742 5740 5737 5734 5730 5722 5716 5717 5719 5719 5719 5718 5717 5716 5715 5714 5712 5711 5710 5709 5707 5706 5705 5704 5702 5700 5699 5697 5696 5695 5694
5766 5765 5764 5762 5760 5758 5757 5755 5753 5751 5749 5746 5743 5741 5737 5733 5728 5724 5717 5714 5713 5713 5715 5715 5714 5713 5712 5710 5709 5707 5705 5703 5702 5700 5699 5698 5697 5694 5693 5691 5690 5689 5688
5763 5763 5763 5761 5759 5758 5756 5754 5752 5750 5748 5745 5743 5741 5739 5736 5733 5728 5720 5714 5710 5709 5710 5710 5710 5709 5707 5706 5705 5703 5700 5699 5697 5695 5694 5693 5691 5688 5687 5685 5684 5683 5682
5763 5763 5762 5760 5759 5757 5755 5753 5751 5749 5747 5745 5743 5741 5739 5736 5734 5730 5723 5715 5707 5704 5704 5704 5706 5705 5703 5702 5701 5699 5696 5694 5692 5691 5689 5686 5684 5682 5680 5679 5677 5676 5675
5764 5762 5761 5759 5757 5755 5753 5751 5749 5747 5745 5743 5742 5740 5738 5736 5734 5731 5727 5721 5711 5701 5698 5699 5700 5701 5700 5698 5696 5694 5692 5690 5688 5685 5682 5680 5678 5676 5674 5672 5671 5670 5668
5763 5761 5759 5757 5755 5753 5751 5749 5747 5745 5742 5741 5739 5738 5736 5734 5732 5730 5727 5722 5718 5709 5700 5699 5699 5698 5697 5695 5692 5690 5688 5685 5682 5679 5676 5674 5672 5670 5668 5666 5664 5663 5662
5762 5760 5758 5755 5753 5750 5749 5746 5744 5742 5739 5738 5736 5735 5732 5731 5729 5726 5724 5720 5715 5710 5701 5697 5696 5695 5692 5690 5688 5685 5682 5679 5676 5673 5671 5669 5666 5664 5662 5660 5658 5656 5654
5761 5759 5756 5753 5750 5748 5746 5743 5741 5738 5736 5734 5732 5731 5728 5728 5725 5722 5720 5716 5712 5709 5703 5695 5692 5689 5687 5684 5682 5679 5676 5674 5671 5667 5665 5663 5660 5657 5655 5654 5652 5649 5647
5758 5756 5753 5750 5747 5745 5743 5741 5738 5735 5733 5731 5729 5727 5725 5724 5720 5719 5716 5713 5710 5707 5702 5695 5688 5685 5682 5679 5676 5673 5671 5667 5665 5662 5660 5657 5654 5651 5649 5647 5645 5642 5640
5756 5753 5750 5748 5745 5742 5740 5738 5735 5732 5730 5728 5726 5724 5723 5721 5718 5716 5713 5709 5706 5701 5697 5691 5684 5680 5676 5674 5670 5666 5662 5660 5658 5656 5653 5651 5648 5646 5643 5641 5639 5637 5634
5754 5751 5748 5745 5742 5740 5737 5735 5732 5730 5726 5724 5722 5721 5719 5718 5716 5713 5710 5705 5702 5696 5691 5686 5680 5675 5671 5668 5664 5661 5657 5654 5652 5650 5647 5644 5642 5640 5637 5635 5632 5630 5627
5751 5748 5744 5741 5739 5737 5735 5733 5730 5726 5723 5719 5717 5715 5715 5713 5711 5709 5706 5703 5700 5694 5688 5682 5677 5672 5668 5666 5662 5658 5652 5648 5644 5645 5641 5637 5635 5633 5632 5629 5626 5623 5621
5748 5743 5740 5737 5734 5732 5731 5729 5726 5723 5719 5716 5713 5710 5710 5709 5706 5703 5701 5698 5694 5691 5688 5682 5676 5671 5668 5665 5660 5655 5650 5645 5642 5641 5636 5632 5630 5627 5626 5623 5620 5617 5614
5745 5740 5736 5733 5730 5728 5727 5724 5721 5718 5714 5711 5709 5707 5703 5701 5701 5698 5695 5691 5687 5685 5682 5679 5675 5671 5668 5664 5659 5654 5648 5643 5639 5636 5632 5626 5623 5621 5620 5617 5614 5611 5607
5741 5737 5734 5730 5727 5724 5722 5720 5717 5712 5708 5705 5704 5701 5699 5696 5694 5692 5688 5684 5680 5678 5677 5674 5671 5668 5664 5660 5656 5650 5643 5637 5631 5629 5626 5621 5618 5614 5612 5609 5607 5604 5601
5738 5734 5729 5727 5723 5720 5718 5715 5711 5707 5702 5699 5698 5696 5694 5691 5688 5685 5681 5677 5673 5671 5669 5666 5663 5660 5657 5654 5650 5646 5640 5633 5627 5622 5621 5616 5612 5607 5603 5602 5599 5597 5593